www.pogodaiklimat.ru

Погода и климат >> Архив погоды >> Алжир >> Роуд-Ноусс


ПОГОДА в Роуд-Ноусс

  • Прогноз погоды в Роуд-Ноусс
  • Монитор погоды в Роуд-Ноусс

АРХИВ ПОГОДЫ в Роуд-Ноусс

Время (UTC), дата Ветер
(напр.,м/с)
 
Видим.   Явления Облачность Т
(С)
Тd
(С)
f
(%)
Тe
(С)
Тes
(С)
Комфортность P
(гПа)
Po
(гПа)
Тmin
(С)
Tmax
(С)
R
(мм)
R24
(мм)
S
(см)
06 10.09 С 2 10 км ясно +26.0 +13.5 46 +28 +28 жарко 1012.4 983.6 +25.4
09 10.09 С 2 10 км 5/1 900 м
[Cu med, cong Ci fib]
+31.5 +15.9 39 +34 +43 душно 1013.6 985.2
12 10.09 СЗ 1 10 км 9/5 700 м
[Cu hum Ac trans]
+35.0 +12.9 26 +35 +40 очень
жарко
1012.2 984.2
15 10.09 ЮЗ 2 10 км 9/5 700 м
[Cu hum Ac trans]
+35.7 +10.1 21 +35 +36 очень
жарко
1010.6 982.7
18 10.09 ЮЗ 3 10 км 10/6 600 м
[Cu hum Ac trans]
+34.9 +8.6 20 +33 +33 жарко 1008.8 980.9 +36.0
06 11.09 ЮВ 4 10 км 5/5 700 м
[Cu hum]
+28.7 +8.0 27 +28 +28 жарко 1006.2 977.8 +28.3
09 11.09 ЮВ 10 8000 м 5/5 700 м
[Cu hum]
+36.6 +9.9 20 +35 +36 очень
жарко
1006.7 979.0
12 11.09 Ю 9 7000 м пыльный позёмок 5/5 700 м
[Cu hum]
+41.7 +10.3 15 +40 +41 очень
жарко
1005.3 978.1
15 11.09 ЮЗ 10 3000 м пыльный позёмок 8/8 600 м
[Cb cap]
+42.5 +10.2 15 +41 +41 опасность
перегрева
1003.4 976.3
18 11.09 З 8 4000 м пыльный позёмок 5/5 600 м
[Cb cap]
+38.0 +2.9 11 +35 +35 очень
жарко
1005.6 978.0 +43.0
06 12.09 СЗ 3 4000 м мгла 6/1 600 м
[Cu med, cong]
+31.0 +13.0 33 +32 +32 жарко 1010.6 982.3 +30.4
09 12.09 ЮВ 9 4500 м пыльный позёмок 8/8 600 м
[Cu med, cong]
+37.4 +12.7 23 +37 +38 очень
жарко
1013.0 985.2
12 12.09 ЮВ 16 1000 м пыльный позёмок 8/8 700 м
[Sc]
+39.7 +11.7 19 +39 +39 очень
жарко
1013.0 985.4
15 12.09 ЮВ 6 7000 м 9/9 700 м
[Sc]
+39.3 +10.8 18 +38 +38 очень
жарко
1012.7 985.1
18 12.09 СЗ 2 8000 м 9/9 700 м
[Sc]
+37.6 +11.6 21 +37 +37 очень
жарко
1014.5 986.7 +40.3
06 13.09 ЮВ 6 8000 м 9/4 600 м
[Cu hum Ac trans]
+32.7 +11.7 28 +33 +33 жарко 1016.2 987.9 +32.7
09 13.09 ЮВ 10 7000 м 8/4 700 м
[Cu hum Ac trans]
+38.3 +10.9 19 +37 +37 очень
жарко
1016.2 988.4
12 13.09 Ю 5 7000 м 9/9 700 м
[Sc]
+40.0 +9.5 16 +38 +39 очень
жарко
1015.8 988.1
15 13.09 В 6 8000 м 9/9 700 м
[Cu hum]
+42.0 +9.1 14 +40 +40 очень
жарко
1014.0 986.6
18 13.09 СВ 5 8000 м 5/5 700 м
[Cu hum]
+40.0 +9.5 16 +38 +38 очень
жарко
1014.2 986.6 +42.0
06 14.09 В 3 10 км 8/8 700 м
[Cu hum]
+31.5 +11.2 29 +32 +32 жарко 1017.0 988.5 +29.4
09 14.09 ЮВ 7 10 км ясно +36.0 +11.5 23 +36 +38 очень
жарко
1017.7 989.6
12 14.09 ЮВ 5 10 км 6/0 2000 м
[Ac cast Ci sp]
+40.2 +10.8 17 +39 +45 очень
жарко
1016.0 988.3
15 14.09 СВ 6 10 км 8/4 900 м
[Cu hum Ac trans]
+41.1 +11.6 17 +40 +41 очень
жарко
1014.2 986.7
18 14.09 СВ 6 10 км 5/3 900 м
[Cu hum Ac trans]
+38.6 +11.1 19 +38 +38 очень
жарко
1015.1 987.3 +42.2
06 15.09 ЮВ 2 10 км ясно +28.2 +9.2 30 +28 +28 жарко 1017.1 988.3 +27.6
09 15.09 В 4 10 км ясно +32.0 +8.0 23 +31 +39 жарко 1019.2 990.7
12 15.09 СВ 5 10 км ясно +35.1 +9.3 21 +34 +42 очень
жарко
1018.1 989.9
15 15.09 СВ 5 10 км ясно +35.9 +7.9 18 +34 +37 очень
жарко
1016.0 988.0
18 15.09 СВ 6 10 км ясно +34.1 +7.1 19 +32 +32 жарко 1015.9 987.7 +36.8
06 16.09 СЗ 2 10 км ясно +23.6 +8.0 37 +24 +24 комфорт 1016.4 987.2 +23.4
09 16.09 В 4 10 км ясно +30.8 +7.4 23 +30 +36 жарко 1017.8 989.3
12 16.09 СВ 3 10 км ясно +34.2 +7.6 19 +32 +48 жарко 1016.4 988.2
15 16.09 В 4 10 км ясно +35.6 +6.2 16 +33 +38 жарко 1014.4 986.4
18 16.09 СВ 4 10 км ясно +34.3 +4.1 15 +32 +32 жарко 1014.6 986.5 +36.7

 

Местоположение метеостанции Роуд-Ноусс (Алжир): широта 29.72 долгота 6.70 высота над уровнем моря 253 м.

В архиве по умолчанию представлена погода в Роуд-Ноусс за последнюю неделю. Архивные данные за месяц целиком и за предыдущие месяцы, начиная с января 2011 года, Вы можете получить, выбрав интересующий диапазон дат из раскрывающегося списка и нажав кнопку "Ввод!".


*Определитесь, кто Вы:
робот инопланетянин человек

Внимание! Время в таблицах - всемирное. Для получения местного времени необходимо прибавить поправку, которая равна 1 ч.

Смотрите также архив погоды в соседних городах и на ближайших метеорологических станциях:

Погода в Tin Fouye (Алжир) (166 км)
Погода в Хасси-Мессауде (Алжир) (223 км)
Погода в Гадамесе (Ливия) (274 км)
Погода в Уаргла (Алжир) (275 км)
Погода в Эль Борма (Тунис) (321 км)
Погода в Ин-Аменасе (Алжир) (340 км)
Погода в Эль-Голеа (Алжир) (380 км)
Погода в Туггурте (Алжир) (382 км)
Погода в Иллизи (Алжир) (396 км)
Погода в Гардая (Алжир) (406 км)

Пояснения к столбцам:

Ветер - указаны скорость ветра в м/с - средняя за 10 мин, порывы в срок и между сроками (в фигурных скобках) и направление, откуда дует ветер: С - северный, СВ - северо-восточный, В - восточный, ЮВ - юго-восточный, Ю - южный, ЮЗ - юго-западный, З - западный, СЗ - северо-западный.
Видимость - горизонтальная дальность видимости в метрах или километрах. При видимости от 1 до 10 км при отсутствии осадков обычно наблюдается дымка, при ухудшении видимости до 1 км и менее - туман. В сухую погоду видимость может ухудшаться дымом, пылью или мглою.
Явления - указаны атмосферные явления, наблюдавшиеся в срок или в последний час перед сроком; фигурными скобками обозначены явления, наблюдавшиеся между сроками (за 1-3 часа до срока); квадратными скобками обозначены град или гололедные отложения с указанием их диаметра в мм.
Облачность - указаны через наклонную черту общая и нижняя облачность в баллах и высота нижней границы облаков в метрах; квадратными скобками обозначены формы облаков: Ci - перистые, Cs - перисто-слоистые, Cc - перисто-кучевые, Ac - высококучевые, As - высокослоистые, Sc - слоисто-кучевые, Ns - слоисто-дождевые, Cu - кучевые, Cb - кучево-дождевые. Подробнее классификацию облаков см. в Атласе облаков (PDF).
T - Температура воздуха - температура, измеренная на высоте 2 м над землей.
Td - Температура точки росы - температура, при понижении до которой содержащийся в воздухе водяной пар достигнет насыщения.
f - Относительная влажность воздуха - влажноcть воздуха, измеренная на высоте 2 м над землей.
Te - Эффективная температура - температура, которую ощущает одетый по сезону человек в тени. Характеристика душности погоды. При расчете учитывается влияние влажности воздуха и скорости ветра на теплоощущения человека.
Tes - Эффективная температура на солнце - температура, которую ощущает человек, с поправкой на солнечный нагрев. Характеристика знойности погоды. Зависит от высоты солнца над горизонтом, облачности и скорости ветра. Ночью, в пасмурную погоду, а также при ветре 12 м/с и более поправка равна нулю.
P - Атмосферное давление - приведенное к уровню моря атмосферное давление.
Po - Атмосферное давление - измеренное на уровне метеостанции атмосферное давление.
Tmin - Минимальная температура - минимум температуры воздуха на высоте 2 м над землей.
Tmax - Максимальная температура - максимум температуры воздуха на высоте 2 м над землей.
R - Количество осадков - Количество выпавших осадков за период времени, мм. При наведении курсора мыши на число - период времени, за который выпало указанное количество осадков.
R24 - Количество осадков - Количество выпавших осадков за 24 часа, мм.
S - Снежный покров - Высота снежного покрова, см. При наведении курсора мыши на число - состояние снежного покрова и степень покрытия местности в баллах.